WB9TLH-11 Weather Reports


time (UTC)temp
F
wind
direction
speed
knots
gust
knots
rain 1hr
in
rain 24hr
in
rain mn
in
humidity
%
barometer
mb
20260906091250 73 121 0.0 0.9 0.00 0.01 0.00 84 1012.6
20260906091228 73 121 0.0 0.9 0.00 0.01 0.00 84 1012.7
20260906090750 73 121 0.0 0.9 0.00 0.01 0.00 84 1012.6
20260906090250 73 121 0.0 3.5 0.00 0.01 0.00 84 1012.6
20260906085750 73 105 0.0 2.6 0.00 0.01 0.00 85 1012.6
20260906085228 73 86 0.0 2.6 0.00 0.01 0.00 85 1012.5
20260906084750 73 84 0.0 1.7 0.00 0.01 0.00 85 1012.5
20260906084228 73 104 0.0 4.3 0.00 0.01 0.00 85 1012.4
20260906083750 73 82 0.0 2.6 0.00 0.01 0.00 85 1012.4
20260906083229 73 82 0.0 1.7 0.00 0.01 0.00 85 1012.4
20260906082750 73 82 0.0 1.7 0.00 0.01 0.00 85 1012.4
20260906082250 73 82 0.0 1.7 0.00 0.01 0.00 85 1012.3
20260906082228 73 82 0.0 2.6 0.00 0.01 0.00 85 1012.3
20260906081750 73 336 0.0 2.6 0.00 0.01 0.00 85 1012.2
20260906081250 73 90 0.0 0.9 0.00 0.01 0.00 84 1012.2
20260906080750 73 90 0.0 0.9 0.00 0.01 0.00 84 1012.2
20260906080227 73 90 0.0 0.0 0.00 0.01 0.00 84 1012.3
20260906075750 73 90 0.0 4.3 0.00 0.01 0.00 84 1012.2
20260906075250 73 75 0.0 4.3 0.00 0.01 0.00 83 1012.2
20260906075228 73 38 0.0 1.7 0.00 0.01 0.00 83 1012.2
20260906074750 73 113 0.0 0.9 0.00 0.01 0.00 83 1012.3
20260906074250 74 113 0.9 2.6 0.00 0.01 0.00 82 1012.2
20260906073750 74 5 0.9 2.6 0.00 0.01 0.00 82 1012.2
20260906073250 74 14 0.0 2.6 0.00 0.01 0.00 82 1012.2
20260906073227 74 50 0.0 2.6 0.00 0.01 0.00 82 1012.2
20260906072750 74 22 0.0 0.9 0.00 0.01 0.00 82 1012.3
20260906072250 74 22 0.0 1.7 0.00 0.01 0.00 81 1012.3
20260906072227 74 22 0.0 1.7 0.00 0.01 0.00 81 1012.4
20260906071750 74 343 0.0 2.6 0.00 0.01 0.00 81 1012.4
20260906071250 74 57 0.0 1.7 0.00 0.01 0.00 81 1012.4
20260906070750 74 338 0.0 3.5 0.00 0.01 0.00 80 1012.5
20260906070229 74 65 0.0 3.5 0.00 0.01 0.00 80 1012.5
20260906065750 74 123 0.0 3.5 0.00 0.01 0.00 80 1012.4
20260906065228 74 120 0.0 2.6 0.00 0.01 0.00 80 1012.4
20260906064750 74 49 0.0 2.6 0.00 0.01 0.00 79 1012.5
20260906064228 75 46 0.0 1.7 0.00 0.01 0.00 78 1012.4
20260906063750 75 52 0.0 0.9 0.00 0.01 0.00 78 1012.5
20260906063250 75 53 0.0 0.9 0.00 0.01 0.00 78 1012.5
20260906062750 75 53 0.0 1.7 0.00 0.01 0.00 78 1012.5
20260906062250 75 5 0.0 0.0 0.00 0.01 0.00 78 1012.6
20260906062228 75 5 0.0 0.0 0.00 0.01 0.00 78 1012.5
20260906061750 75 67 0.0 2.6 0.00 0.01 0.00 78 1012.6
20260906061250 75 67 0.0 0.9 0.00 0.01 0.00 78 1012.6
20260906061228 75 67 0.0 0.9 0.00 0.01 0.00 78 1012.5
20260906060750 75 67 0.0 1.7 0.00 0.01 0.00 77 1012.6
20260906060250 75 92 0.0 2.6 0.00 0.01 0.00 77 1012.6
20260906060230 75 92 0.0 2.6 0.00 0.01 0.00 77 1012.6
20260906055750 76 57 0.0 2.6 0.00 0.01 0.00 77 1012.5
20260906055250 76 57 0.0 1.7 0.00 0.01 0.00 77 1012.5
20260906055228 76 62 0.0 1.7 0.00 0.01 0.00 77 1012.5
20260906054750 76 62 0.0 1.7 0.00 0.01 0.00 77 1012.5
20260906054250 76 62 0.0 0.9 0.00 0.01 0.00 77 1012.4
20260906054228 76 62 0.0 1.7 0.00 0.01 0.00 77 1012.4
20260906053750 76 62 0.0 1.7 0.00 0.01 0.00 77 1012.3
20260906053250 76 62 0.0 0.0 0.00 0.01 0.00 76 1012.4
20260906052750 76 62 0.0 0.9 0.00 0.01 0.00 76 1012.5
20260906052250 77 62 0.0 0.0 0.00 0.01 0.00 75 1012.6
20260906052228 77 62 0.0 0.0 0.00 0.01 0.00 75 1012.6
20260906051750 77 62 0.0 0.0 0.00 0.01 0.00 75 1012.6
20260906051250 77 62 0.0 0.0 0.00 0.01 0.00 75 1012.5
20260906051229 77 62 0.0 0.0 0.00 0.01 0.00 75 1012.5
20260906050750 77 62 0.0 0.0 0.00 0.01 0.00 75 1012.4
20260906050250 77 62 0.0 0.0 0.00 0.01 0.00 75 1012.3
20260906050228 77 62 0.0 0.0 0.00 0.01 0.00 75 1012.3
20260906045750 77 62 0.0 0.0 0.00 0.01 0.00 74 1012.3
20260906045250 77 62 0.0 0.0 0.00 0.01 0.00 74 1012.2
20260906045228 77 62 0.0 0.0 0.00 0.01 0.00 74 1012.2
20260906044750 78 62 0.0 0.0 0.00 0.01 0.00 74 1012.1
20260906044250 78 62 0.0 0.0 0.00 0.01 0.00 73 1012.0
20260906044229 78 62 0.0 0.0 0.00 0.01 0.00 73 1012.0
20260906043750 78 62 0.0 0.0 0.00 0.01 0.00 73 1011.9
20260906043250 78 62 0.0 0.9 0.00 0.01 0.00 72 1011.9
20260906042750 78 62 0.0 0.9 0.00 0.01 0.00 72 1011.9
20260906042250 79 62 0.0 0.0 0.00 0.01 0.00 72 1011.9
20260906042228 79 62 0.0 0.0 0.00 0.01 0.00 72 1011.9
20260906041750 79 62 0.0 0.0 0.00 0.01 0.00 72 1011.9
20260906041250 79 62 0.0 0.9 0.00 0.01 0.00 71 1011.8
20260906041229 79 62 0.0 0.9 0.00 0.01 0.00 71 1011.8
20260906040750 79 62 0.0 0.0 0.00 0.01 0.00 71 1011.8
20260906040250 79 62 0.0 0.9 0.00 0.01 0.00 71 1011.9
20260906035750 79 86 0.0 2.6 0.00 0.01 0.00 71 1011.8
20260906035250 80 86 0.0 1.7 0.00 0.01 0.01 71 1011.8
20260906035228 80 86 0.0 1.7 0.00 0.01 0.01 71 1011.8
20260906034750 80 84 0.0 1.7 0.00 0.01 0.01 71 1011.8
20260906034250 80 83 0.0 0.0 0.00 0.01 0.01 72 1011.9
20260906033750 80 83 0.0 0.9 0.00 0.01 0.01 71 1011.9
20260906033250 80 83 0.0 4.3 0.00 0.01 0.01 71 1011.8
20260906032751 80 83 0.0 4.3 0.00 0.01 0.01 71 1011.9
20260906032250 80 82 0.0 0.0 0.00 0.01 0.01 71 1011.8
20260906031750 80 82 0.0 1.7 0.00 0.01 0.01 71 1011.8
20260906031251 80 82 0.0 1.7 0.00 0.01 0.01 71 1011.7
20260906031228 81 82 0.0 1.7 0.00 0.01 0.01 71 1011.7
20260906030751 81 82 0.0 0.0 0.00 0.01 0.01 70 1011.6
20260906030251 81 82 0.0 0.0 0.00 0.01 0.01 70 1011.6
20260906030228 81 82 0.0 0.0 0.00 0.01 0.01 70 1011.6
20260906025751 81 82 0.0 0.0 0.00 0.01 0.01 70 1011.6
20260906025251 81 82 0.0 0.0 0.00 0.01 0.01 70 1011.6
20260906024751 81 82 0.0 0.0 0.00 0.01 0.01 70 1011.5
20260906024251 82 82 0.0 0.0 0.00 0.01 0.01 70 1011.5
20260906024228 82 82 0.0 0.0 0.00 0.01 0.01 70 1011.5
20260906023751 82 82 0.0 0.9 0.00 0.01 0.01 70 1011.5
20260906023251 82 82 0.0 0.0 0.00 0.01 0.01 70 1011.4
20260906023228 82 82 0.0 0.0 0.00 0.01 0.01 70 1011.4
20260906022751 82 82 0.0 0.0 0.00 0.01 0.01 70 1011.4
20260906022251 82 82 0.0 0.0 0.00 0.01 0.01 70 1011.3
20260906021751 82 82 0.0 1.7 0.00 0.01 0.01 70 1011.2
20260906021251 82 82 0.0 0.9 0.00 0.01 0.01 70 1011.1
20260906020751 82 82 0.0 2.6 0.00 0.01 0.01 71 1011.2
20260906020251 82 82 0.0 0.0 0.00 0.01 0.01 72 1011.1
20260906015751 82 82 0.0 0.0 0.00 0.01 0.01 72 1011.1
20260906015251 82 82 0.0 0.0 0.00 0.01 0.01 74 1011.1
20260906014751 82 82 0.0 0.0 0.00 0.01 0.01 74 1011.1
20260906014251 82 82 0.0 0.0 0.00 0.01 0.01 74 1010.9
20260906014228 82 82 0.0 0.0 0.00 0.01 0.01 74 1010.9
20260906013751 82 82 0.0 0.0 0.00 0.01 0.01 73 1010.8
20260906013251 82 82 0.0 0.0 0.00 0.01 0.01 73 1010.7
20260906013228 82 82 0.0 0.0 0.00 0.01 0.01 73 1010.7
20260906012751 82 82 0.0 0.0 0.00 0.01 0.01 72 1010.5
20260906012251 83 82 0.0 0.0 0.00 0.01 0.01 71 1010.4
20260906012228 83 82 0.0 0.0 0.00 0.01 0.01 71 1010.4
20260906011751 83 82 0.0 0.0 0.00 0.01 0.01 71 1010.4
20260906011251 83 82 0.0 0.0 0.00 0.01 0.01 71 1010.4
20260906010751 83 82 0.0 0.0 0.00 0.01 0.01 71 1010.3
20260906010251 84 82 0.0 0.0 0.00 0.01 0.01 71 1010.2
20260906005751 84 82 0.0 0.0 0.00 0.01 0.01 70 1010.1
20260906005251 84 82 0.0 0.0 0.00 0.01 0.01 70 1010.1
20260906004751 84 82 0.0 0.0 0.00 0.01 0.01 68 1010.1
20260906004251 85 82 0.0 0.0 0.00 0.01 0.01 69 1010.1
20260906003751 85 82 0.0 0.0 0.00 0.01 0.01 67 1010.3
20260906003251 85 82 0.0 0.0 0.00 0.01 0.01 66 1010.3
20260906003228 85 82 0.0 0.0 0.00 0.01 0.01 66 1010.3
20260906002751 85 82 0.0 0.0 0.00 0.01 0.01 66 1010.4
20260906002251 86 82 0.0 0.0 0.00 0.01 0.01 65 1010.4
20260906001751 86 82 0.0 0.0 0.00 0.01 0.01 65 1010.4
20260906001251 86 82 0.0 0.0 0.00 0.01 0.01 64 1010.5
20260906001228 86 82 0.0 0.0 0.00 0.01 0.01 64 1010.5
20260906000751 87 82 0.0 0.0 0.00 0.01 0.01 63 1010.5
20260906000251 87 82 0.0 0.0 0.00 0.01 0.01 63 1010.5
20260906000229 87 82 0.0 0.0 0.00 0.01 0.01 63 1010.5
20260905235751 87 82 0.0 0.0 0.00 0.01 0.01 63 1010.5
20260905235251 87 82 0.0 0.0 0.00 0.01 0.01 63 1010.6
20260905235231 87 82 0.0 0.0 0.00 0.01 0.01 63 1010.5
20260905234751 88 82 0.0 0.0 0.00 0.01 0.01 62 1010.6
20260905234251 88 82 0.0 0.0 0.00 0.01 0.01 62 1010.6
20260905233751 88 82 0.0 0.0 0.00 0.01 0.01 61 1010.5
20260905233251 88 82 0.0 0.0 0.00 0.01 0.01 61 1010.5
20260905233228 88 82 0.0 0.0 0.00 0.01 0.01 61 1010.5
20260905232751 89 82 0.0 0.0 0.00 0.01 0.01 60 1010.5
20260905232251 89 82 0.0 0.0 0.00 0.01 0.01 60 1010.5
20260905231751 89 82 0.0 0.0 0.00 0.01 0.01 60 1010.6
20260905231251 89 82 0.0 0.0 0.00 0.01 0.01 59 1010.4
20260905231231 89 82 0.0 0.0 0.00 0.01 0.01 59 1010.4
20260905230751 89 82 0.0 0.0 0.00 0.01 0.01 59 1010.3
20260905230251 89 82 0.0 0.0 0.00 0.01 0.01 59 1010.3
20260905230228 89 82 0.0 0.0 0.00 0.01 0.01 59 1010.3
20260905225751 89 82 0.0 0.0 0.00 0.01 0.01 59 1010.2
20260905225251 90 82 0.0 0.0 0.00 0.01 0.01 58 1010.2
20260905225229 90 82 0.0 0.0 0.00 0.01 0.01 58 1010.2
20260905224751 90 82 0.0 0.0 0.00 0.01 0.01 58 1010.3
20260905224251 90 82 0.0 0.0 0.00 0.01 0.01 58 1010.3
20260905224229 90 82 0.0 0.0 0.00 0.01 0.01 58 1010.4
20260905223751 90 82 0.0 0.0 0.00 0.01 0.01 57 1010.3
20260905223251 90 82 0.0 0.9 0.00 0.01 0.01 57 1010.1
20260905223229 90 82 0.0 0.9 0.00 0.01 0.01 57 1010.1
20260905222751 90 82 0.0 0.0 0.00 0.01 0.01 57 1010.2
20260905222251 90 82 0.0 0.0 0.00 0.01 0.01 57 1010.1
20260905222229 90 82 0.0 0.0 0.00 0.01 0.01 57 1010.1
20260905221751 90 82 0.0 0.9 0.00 0.01 0.01 56 1010.1
20260905221251 90 82 0.0 1.7 0.00 0.01 0.01 56 1010.1
20260905220751 90 82 0.0 0.0 0.00 0.01 0.01 56 1010.0
20260905220251 90 82 0.0 0.0 0.00 0.01 0.01 56 1009.9
20260905215751 91 82 0.0 0.0 0.00 0.01 0.01 55 1009.8
20260905215251 91 82 0.0 0.9 0.00 0.01 0.01 55 1010.0
20260905215229 91 82 0.0 0.9 0.00 0.01 0.01 55 1010.0
20260905214751 91 82 0.0 0.0 0.00 0.01 0.01 55 1010.1
20260905214251 91 82 0.0 0.9 0.00 0.01 0.01 55 1010.1
20260905213751 91 82 0.0 0.0 0.00 0.01 0.01 55 1010.1
20260905213251 91 82 0.0 2.6 0.00 0.01 0.01 55 1010.2
20260905213230 91 82 0.0 2.6 0.00 0.01 0.01 55 1010.2
20260905212752 91 347 0.0 0.9 0.00 0.01 0.01 53 1010.2
20260905212251 91 347 0.0 0.9 0.00 0.01 0.01 55 1010.2
20260905212229 91 347 0.0 0.9 0.00 0.01 0.01 55 1010.2
20260905211751 91 347 0.0 0.0 0.00 0.01 0.01 55 1010.2
20260905211251 91 347 0.0 0.0 0.00 0.01 0.01 54 1010.1
20260905211229 91 347 0.0 0.0 0.00 0.01 0.01 54 1010.1
20260905210751 91 347 0.0 0.0 0.00 0.01 0.01 54 1010.1
20260905210251 91 347 0.0 0.9 0.00 0.01 0.01 53 1010.2
20260905205751 91 343 0.0 0.9 0.00 0.01 0.01 53 1010.4
20260905205251 92 343 0.0 1.7 0.00 0.01 0.01 53 1010.4
20260905205229 92 343 0.0 1.7 0.00 0.01 0.01 53 1010.4
20260905204751 92 343 0.0 1.7 0.00 0.01 0.01 52 1010.5
20260905204251 92 343 0.0 0.0 0.00 0.01 0.01 51 1010.5
20260905204229 92 343 0.0 0.0 0.00 0.01 0.01 51 1010.6
20260905203751 92 343 0.9 2.6 0.00 0.01 0.01 51 1010.7
20260905203251 92 338 0.9 1.7 0.00 0.01 0.01 51 1010.7
20260905202751 92 338 0.0 2.6 0.00 0.01 0.01 49 1010.8
20260905202251 92 338 0.0 2.6 0.00 0.01 0.01 50 1010.9
20260905202229 92 338 0.0 1.7 0.00 0.01 0.01 50 1010.9
20260905201751 92 338 0.0 0.9 0.00 0.01 0.01 52 1010.9
20260905201251 92 338 0.0 0.9 0.00 0.01 0.01 50 1010.9
20260905200751 92 338 0.0 0.0 0.00 0.01 0.01 49 1010.9
20260905200251 92 338 0.0 0.0 0.00 0.01 0.01 51 1011.0
20260905195751 93 338 0.0 1.7 0.00 0.01 0.01 50 1011.0
20260905195251 93 338 0.0 1.7 0.00 0.01 0.01 49 1010.9
20260905194751 93 338 0.0 1.7 0.00 0.01 0.01 48 1010.9
20260905194251 93 338 0.0 0.0 0.00 0.01 0.01 49 1011.0
20260905194230 93 338 0.0 0.0 0.00 0.01 0.01 49 1011.0
20260905193751 93 338 0.0 0.9 0.00 0.01 0.01 50 1011.1
20260905193251 93 338 0.0 2.6 0.00 0.01 0.01 48 1011.2
20260905193229 93 338 0.0 2.6 0.00 0.01 0.01 48 1011.2
20260905192752 94 346 0.0 2.6 0.00 0.01 0.01 48 1011.1
20260905192251 94 128 0.0 0.0 0.00 0.01 0.01 49 1011.2
20260905192229 94 128 0.0 0.0 0.00 0.01 0.01 49 1011.2
20260905191751 93 128 0.0 1.7 0.00 0.01 0.01 48 1011.3
20260905191251 93 128 0.0 1.7 0.00 0.01 0.01 49 1011.4
20260905190751 93 128 0.0 1.7 0.00 0.01 0.01 49 1011.5
20260905190251 93 128 0.0 1.7 0.00 0.01 0.01 49 1011.6
20260905185751 93 128 0.0 1.7 0.00 0.01 0.01 48 1011.6
20260905185251 93 128 0.0 2.6 0.00 0.01 0.01 49 1011.7
20260905185229 93 128 0.0 2.6 0.00 0.01 0.01 49 1011.7
20260905184752 93 128 0.0 1.7 0.00 0.01 0.01 49 1011.8
20260905184252 92 128 0.0 0.9 0.00 0.01 0.01 50 1011.8
20260905184229 92 128 0.0 0.9 0.00 0.01 0.01 50 1011.9
20260905183752 93 128 0.0 2.6 0.00 0.01 0.01 49 1011.9
20260905183252 93 128 0.0 0.9 0.00 0.01 0.01 49 1012.1
20260905182751 94 128 0.9 0.9 0.00 0.01 0.01 47 1012.2
20260905182252 94 128 0.9 2.6 0.00 0.01 0.01 47 1012.2
20260905182230 94 128 0.9 2.6 0.00 0.01 0.01 47 1012.2
20260905181752 94 128 0.9 2.6 0.00 0.01 0.01 48 1012.2
20260905181252 94 128 0.9 4.3 0.00 0.01 0.01 50 1012.3
20260905181229 94 128 0.9 4.3 0.00 0.01 0.01 50 1012.2
20260905180752 93 113 0.9 4.3 0.00 0.01 0.01 50 1012.3
20260905180252 93 109 0.9 5.2 0.00 0.01 0.01 49 1012.3
20260905180229 93 109 0.9 5.2 0.00 0.01 0.01 49 1012.3
20260905175752 93 157 0.9 2.6 0.00 0.01 0.01 50 1012.3
20260905175252 93 157 0.9 3.5 0.00 0.01 0.01 49 1012.3
20260905175229 93 157 0.9 3.5 0.00 0.01 0.01 49 1012.3
20260905174752 93 157 0.9 2.6 0.00 0.01 0.01 50 1012.3
20260905174252 92 157 0.9 3.5 0.00 0.01 0.01 49 1012.4
20260905174229 92 157 0.9 3.5 0.00 0.01 0.01 49 1012.5
20260905173752 92 157 1.7 3.5 0.00 0.01 0.01 48 1012.4
20260905173252 92 157 1.7 4.3 0.00 0.01 0.01 48 1012.5
20260905173229 92 157 1.7 5.2 0.00 0.01 0.01 49 1012.5
20260905172752 91 157 0.9 5.2 0.00 0.01 0.01 49 1012.6
20260905172252 91 157 1.7 2.6 0.00 0.01 0.01 50 1012.6
20260905172229 91 157 1.7 2.6 0.00 0.01 0.01 50 1012.6
20260905171752 91 157 1.7 5.2 0.00 0.01 0.01 48 1012.6
20260905171252 90 147 1.7 3.5 0.00 0.01 0.01 51 1012.6
20260905171229 90 147 1.7 3.5 0.00 0.01 0.01 51 1012.6
20260905170752 90 148 1.7 4.3 0.00 0.01 0.01 51 1012.7
20260905170252 89 80 0.9 5.2 0.00 0.01 0.01 52 1013.0
20260905170230 89 80 0.9 5.2 0.00 0.01 0.01 52 1013.0
20260905165752 89 155 0.9 2.6 0.00 0.01 0.01 51 1013.1
20260905165252 89 155 0.9 4.3 0.00 0.01 0.01 53 1013.2
20260905164752 89 155 0.9 3.5 0.00 0.01 0.01 54 1013.4
20260905164252 88 155 2.6 5.2 0.00 0.01 0.01 53 1013.3
20260905163752 88 157 2.6 7.0 0.00 0.01 0.01 53 1013.3
20260905163252 88 157 1.7 7.0 0.00 0.01 0.01 53 1013.3
20260905163229 88 157 1.7 7.0 0.00 0.01 0.01 53 1013.3
20260905162752 88 160 1.7 4.3 0.00 0.01 0.01 54 1013.2
20260905162252 87 144 1.7 2.6 0.00 0.01 0.01 54 1013.1
20260905162229 87 144 1.7 3.5 0.00 0.01 0.01 54 1013.2
20260905161752 87 145 2.6 4.3 0.00 0.01 0.01 54 1013.2
20260905161252 86 159 2.6 7.8 0.00 0.01 0.01 57 1013.1
20260905161230 86 159 2.6 7.8 0.00 0.01 0.01 55 1013.1
20260905160752 86 161 2.6 7.0 0.00 0.01 0.01 54 1013.2
20260905160252 86 149 2.6 5.2 0.00 0.01 0.01 55 1013.1
20260905160229 86 163 2.6 5.2 0.00 0.01 0.01 55 1013.1
20260905155752 86 92 1.7 5.2 0.00 0.01 0.01 55 1013.3
20260905155252 86 161 2.6 5.2 0.00 0.01 0.01 55 1013.4
20260905155229 85 161 1.7 5.2 0.00 0.01 0.01 55 1013.4
20260905154752 85 165 1.7 6.1 0.00 0.01 0.01 55 1013.6
20260905154252 85 119 1.7 2.6 0.00 0.01 0.01 56 1013.6
20260905153752 84 111 1.7 5.2 0.00 0.01 0.01 57 1013.6
20260905153252 84 150 2.6 5.2 0.00 0.01 0.01 58 1013.6
20260905152752 83 148 3.5 6.1 0.00 0.01 0.01 58 1013.6
20260905152252 83 153 3.5 9.6 0.00 0.01 0.01 60 1013.6
20260905152229 83 153 3.5 9.6 0.00 0.01 0.01 60 1013.6
20260905151752 82 99 2.6 6.1 0.00 0.01 0.01 62 1013.6
20260905151252 82 83 2.6 7.0 0.00 0.01 0.01 61 1013.5
20260905151229 82 83 2.6 7.0 0.00 0.01 0.01 63 1013.5
20260905150752 82 74 3.5 6.1 0.00 0.01 0.01 62 1013.5
20260905150252 82 86 2.6 7.0 0.00 0.01 0.01 62 1013.5
20260905150230 82 69 2.6 6.1 0.00 0.01 0.01 62 1013.5
20260905145752 81 102 3.5 7.8 0.00 0.01 0.01 63 1013.6
20260905145252 81 101 3.5 7.0 0.00 0.01 0.01 62 1013.7
20260905145231 81 101 3.5 7.0 0.00 0.01 0.01 62 1013.7
20260905144752 81 137 3.5 8.7 0.00 0.01 0.01 62 1013.8
20260905144252 81 99 2.6 6.1 0.00 0.01 0.01 63 1013.9
20260905144231 81 115 2.6 6.1 0.00 0.01 0.01 64 1013.9
20260905143752 81 162 3.5 7.0 0.00 0.01 0.01 65 1013.8
20260905143252 80 82 3.5 8.7 0.00 0.01 0.01 65 1013.8
20260905143232 80 123 4.3 7.0 0.00 0.01 0.01 65 1013.8
20260905142752 80 85 4.3 7.0 0.00 0.01 0.01 67 1013.8
20260905142252 80 157 4.3 10.4 0.00 0.01 0.01 67 1013.7
20260905142233 80 157 4.3 10.4 0.00 0.01 0.01 67 1013.8
20260905141752 80 160 3.5 7.0 0.00 0.01 0.01 69 1013.7
20260905141252 80 78 2.6 7.8 0.00 0.01 0.01 68 1013.8
20260905141231 80 78 2.6 7.8 0.00 0.01 0.01 68 1013.9
20260905140752 79 90 2.6 7.8 0.00 0.01 0.01 69 1013.8
20260905140252 79 90 2.6 7.8 0.00 0.01 0.01 69 1013.8
20260905140232 79 120 2.6 7.8 0.00 0.01 0.01 69 1013.8
20260905135752 79 120 2.6 7.0 0.00 0.01 0.01 71 1013.8
20260905135252 79 78 2.6 7.8 0.00 0.01 0.01 71 1013.9
20260905135230 79 102 2.6 7.8 0.00 0.01 0.01 71 1013.9
20260905134752 79 88 2.6 7.0 0.00 0.01 0.01 72 1013.9
20260905134252 78 94 2.6 7.8 0.01 0.01 0.01 74 1014.0
20260905133752 78 71 3.5 8.7 0.01 0.01 0.01 74 1014.0
20260905133252 78 79 2.6 7.8 0.01 0.01 0.01 75 1013.8
20260905132752 77 77 2.6 7.8 0.01 0.01 0.01 76 1013.9
20260905132252 77 115 2.6 4.3 0.01 0.01 0.01 77 1013.8
20260905132230 77 115 2.6 7.0 0.01 0.01 0.01 77 1013.8
20260905131752 77 103 2.6 7.8 0.01 0.01 0.01 77 1013.8
20260905131252 76 48 2.6 7.0 0.01 0.01 0.01 78 1013.8
20260905131230 76 95 2.6 7.0 0.01 0.01 0.01 78 1013.8
20260905130752 76 105 1.7 7.8 0.01 0.01 0.01 79 1014.0
20260905130252 76 109 0.9 6.1 0.01 0.01 0.01 79 1013.9
20260905130230 76 109 0.9 6.1 0.01 0.01 0.01 79 1013.9
20260905125752 76 89 0.9 6.1 0.01 0.01 0.01 77 1013.8
20260905125252 77 89 0.9 6.1 0.01 0.01 0.01 76 1013.8
20260905125230 77 87 0.9 4.3 0.01 0.01 0.01 76 1013.7
20260905124752 78 127 0.9 2.6 0.01 0.01 0.01 74 1013.8
20260905124252 79 107 1.7 3.5 0.00 0.00 0.00 72 1013.7
20260905123752 80 350 0.9 7.8 0.00 0.00 0.00 70 1013.6
20260905123252 80 355 0.0 0.0 0.00 0.00 0.00 67 1013.3
20260905122752 80 355 0.0 0.0 0.00 0.00 0.00 66 1012.9
20260905122252 80 355 0.0 0.0 0.00 0.00 0.00 67 1012.8
20260905122231 80 355 0.0 0.0 0.00 0.00 0.00 66 1012.8
20260905121752 80 355 0.0 0.0 0.00 0.00 0.00 67 1012.8
20260905121252 80 355 0.0 0.0 0.00 0.00 0.00 66 1012.9
20260905120752 80 355 0.0 0.0 0.00 0.00 0.00 66 1012.8
20260905120252 80 355 0.0 0.0 0.00 0.00 0.00 66 1012.8
20260905120230 80 355 0.0 0.0 0.00 0.00 0.00 66 1012.8
20260905115752 80 355 0.0 0.0 0.00 0.00 0.00 66 1012.6
20260905115252 80 355 0.0 0.0 0.00 0.00 0.00 66 1012.6
20260905115230 80 355 0.0 0.0 0.00 0.00 0.00 67 1012.6
20260905114753 80 355 0.0 0.0 0.00 0.00 0.00 67 1012.6
20260905114252 79 355 0.0 0.9 0.00 0.00 0.00 67 1012.6
20260905113752 79 355 0.0 0.0 0.00 0.00 0.00 67 1012.6
20260905113252 79 355 0.0 0.0 0.00 0.00 0.00 67 1012.5
20260905112752 79 355 0.0 0.9 0.00 0.00 0.00 68 1012.5
20260905112252 79 355 0.0 0.0 0.00 0.00 0.00 68 1012.3
20260905111752 79 355 0.0 1.7 0.00 0.00 0.00 68 1012.2
20260905111252 79 355 0.0 0.9 0.00 0.00 0.00 68 1012.2
20260905110752 79 355 0.0 0.9 0.00 0.00 0.00 68 1012.2
20260905110252 79 355 0.0 0.9 0.00 0.00 0.00 69 1012.2
20260905110230 79 355 0.0 0.9 0.00 0.00 0.00 69 1012.2
20260905105752 79 355 0.0 0.9 0.00 0.00 0.00 70 1012.1
20260905105252 79 355 0.0 0.0 0.00 0.00 0.00 70 1012.1
20260905104752 79 355 0.0 0.0 0.00 0.00 0.00 69 1012.2
20260905104252 79 355 0.0 0.0 0.00 0.00 0.00 69 1012.2
20260905104230 79 355 0.0 0.0 0.00 0.00 0.00 69 1012.2
20260905103752 79 355 0.0 0.0 0.00 0.00 0.00 70 1012.2
20260905103252 79 355 0.0 0.0 0.00 0.00 0.00 70 1012.2
20260905103231 79 355 0.0 0.0 0.00 0.00 0.00 70 1012.3
20260905102752 79 355 0.0 0.0 0.00 0.00 0.00 70 1012.3
20260905102230 79 355 0.0 0.0 0.00 0.00 0.00 71 1012.4
20260905101752 79 355 0.0 0.0 0.00 0.00 0.00 71 1012.3
20260905101252 79 355 0.0 0.0 0.00 0.00 0.00 72 1012.3
20260905101230 79 355 0.0 0.0 0.00 0.00 0.00 72 1012.4
20260905100752 79 355 0.0 0.0 0.00 0.00 0.00 72 1012.3
20260905100252 79 355 0.0 0.0 0.00 0.00 0.00 72 1012.3
20260905095752 79 355 0.0 0.0 0.00 0.00 0.00 72 1012.3
20260905095253 79 355 0.0 0.0 0.00 0.00 0.00 72 1012.2
20260905094753 79 355 0.0 0.0 0.00 0.00 0.00 72 1012.2
20260905094230 79 355 0.0 0.0 0.00 0.00 0.00 72 1012.2
20260905093753 79 355 0.0 0.0 0.00 0.00 0.00 72 1012.2
20260905093230 79 355 0.0 0.0 0.00 0.00 0.00 72 1012.2
20260905092753 79 355 0.0 0.0 0.00 0.00 0.00 72 1012.1
20260905092229 80 355 0.0 0.0 0.00 0.00 0.00 71 1012.1
20260905091753 80 355 0.0 0.0 0.00 0.00 0.00 71 1012.1